[[{"header":{"parameterUnit":"m.s-1","parameterCategory":1,"la1":30.2991,"la2":30.254,"lo1":-89.0895,"lo2":-89.0444,"dy":0.0017,"dx":0.0017,"nx":28,"ny":28,"refTime":"2025-12-26T09:00:00:Z","depth":0,"parameterNumber":2,"parameterNumberName":"U-component_of_WINDS"},"data":[0,0,0,0,0,0,0,0,0,0,0,0,0,0,0,0,0,0,0,0,0,0,0,0,0,0,0,0,0,0,0,0,0,0,0,0,0,0,0,0,0,0,0,0,0,0,0,0,0,0,0,0,0,0,0,0,0,0,1.5735,1.5736,0,1.5805,1.5806,1.5806,1.5799,1.5798,1.5797,1.5796,1.587,1.5873,1.5876,0,0,0,0,0,0,0,0,0,0,0,0,0,1.56,1.5603,1.5735,1.5736,1.5737,1.5805,1.5806,1.5807,1.5799,1.5798,1.5796,1.5795,1.5869,1.5872,1.5876,0,0,0,0,0,0,0,0,0,0,0,0,0,1.5663,1.5603,1.5735,1.5741,1.5743,1.5805,1.5806,1.5807,1.5799,1.5798,1.5796,1.5794,1.5868,1.5872,1.5876,1.5938,0,0,1.589,1.5892,0,0,0,0,0,0,0,0,1.566,1.5668,1.574,1.5741,1.5743,1.5791,1.5785,1.5851,1.58,1.5778,1.5796,1.5794,1.5845,1.5852,1.5868,1.5941,1.5944,1.5891,1.5893,1.5895,1.5897,0,0,0,0,0,0,0,1.5655,1.5665,1.5763,1.5741,1.5743,1.5742,1.5749,1.5798,1.582,1.578,1.5779,1.5787,1.5846,1.5864,1.587,1.5945,1.5891,1.5895,1.5897,1.5899,1.6075,1.6076,0,0,0,0,0,0,1.5649,1.5662,1.5761,1.5765,1.5696,1.5746,1.5754,1.5777,1.582,1.5824,1.5789,1.5787,1.5857,1.5865,1.5873,1.5948,1.5895,1.59,1.5902,1.6073,1.6075,1.6077,0,0,0,0,0,0,1.5646,1.5658,1.5758,1.5713,1.5726,1.575,1.5777,1.578,1.5798,1.5826,1.5831,1.5803,1.5856,1.5866,1.5922,1.5951,1.5902,1.5906,1.607,1.6073,1.6076,1.61,0,0,0,0,0,0,1.5642,1.5657,1.5679,1.5714,1.5728,1.5805,1.5778,1.5782,1.5805,1.5803,1.5841,1.5846,1.5856,1.5915,1.5926,1.5956,1.5909,1.6068,1.6072,1.6075,1.6096,1.6103,1.6109,0,0,0,0,0,1.5637,1.5683,1.568,1.5692,1.5757,1.5806,1.5815,1.5825,1.5808,1.5831,1.585,1.5844,1.5946,1.5921,1.5933,1.5965,1.6066,1.6071,1.6075,1.6094,1.6102,1.6109,0,0,0,0,0,0,1.5652,1.5688,1.5685,1.5743,1.5772,1.5805,1.5835,1.5832,1.5867,1.5864,1.5876,1.5884,1.5941,1.5958,1.593,1.6028,1.6004,1.6011,1.6014,1.6022,1.6028,1.6023,1.5913,0,0,0,0,0,1.5662,1.5698,1.5728,1.5777,1.5791,1.5811,1.5833,1.5838,1.5868,1.588,1.5903,1.5934,1.5973,1.5998,1.6036,1.6099,1.6108,1.6127,1.6133,1.6138,1.6144,1.6181,1.6191,1.6091,1.6091,1.6091,0,0,1.5683,1.5707,1.5729,1.578,1.5803,1.5842,1.5821,1.5862,1.5892,1.5887,1.5941,1.5959,1.5994,1.6054,1.6082,1.6071,1.6174,1.6144,1.6147,1.6151,1.6187,1.6196,1.6204,1.6094,1.6094,1.6093,0,0,1.5741,1.5762,1.5806,1.5829,1.5864,1.5877,1.5887,1.5921,1.5933,1.5987,1.5985,1.6021,1.6087,1.6113,1.6135,1.6205,1.6202,1.6217,1.6249,1.6285,1.6293,1.63,1.6326,1.6336,1.6223,1.6223,1.6223,0,1.5763,1.582,1.5829,1.5871,1.5894,1.5892,1.5937,1.596,1.6005,1.6022,1.6009,1.6093,1.6117,1.6184,1.6201,1.6218,1.6232,1.6213,1.6291,1.6298,1.6305,1.633,1.634,1.6225,1.6225,1.6224,1.6224,0,1.5846,1.5886,1.5917,1.5961,1.5988,1.6031,1.6048,1.6075,1.6078,1.6093,1.6149,1.6178,1.6221,1.6238,1.6241,1.6306,1.6298,1.6288,1.6264,1.6316,1.634,1.635,1.6227,1.6227,1.6226,1.6226,0,0,1.5914,1.5963,1.5974,1.5995,1.6034,1.6066,1.611,1.6152,1.6176,1.6208,1.6246,1.6304,1.6295,1.6319,1.6326,1.6358,1.6413,1.6344,1.6345,1.6357,1.6489,1.6497,1.6508,1.6412,1.6413,1.6415,1.6486,0,1.5977,1.6054,1.6064,1.6134,1.6172,1.6171,1.621,1.6239,1.6255,1.629,1.6308,1.6349,1.6333,1.6349,1.6379,1.64,1.644,1.6395,1.6449,1.6451,1.6441,1.652,1.6528,1.6594,1.6495,1.6497,1.6498,0,1.606,1.6094,1.6167,1.6202,1.6219,1.6253,1.6294,1.6328,1.6362,1.6371,1.64,1.6403,1.6451,1.6425,1.6493,1.6462,1.6485,1.6499,1.6502,1.6507,1.6478,1.6529,1.6615,1.6625,1.6513,1.6512,1.6511,0,1.6104,1.6168,1.622,1.6238,1.628,1.6305,1.6324,1.6356,1.6382,1.6418,1.6435,1.6476,1.6499,1.6532,1.6547,1.6527,1.6615,1.6589,1.6625,1.6625,1.6644,1.6642,1.6736,1.6657,1.6657,1.6657,1.6657,0,1.6173,1.6218,1.6241,1.6273,1.6324,1.6337,1.6387,1.6406,1.6435,1.6472,1.6474,1.6509,1.6527,1.6565,1.6578,1.6633,1.6643,1.6653,1.6656,1.6653,1.6652,1.6669,1.6665,1.666,1.6659,1.6659,1.6658,0,1.623,1.6247,1.6304,1.634,1.635,1.6387,1.6418,1.645,1.6466,1.6514,1.6526,1.6551,1.6597,1.6615,1.6671,1.668,1.6743,1.6742,1.6731,1.6733,1.6767,1.6764,1.6875,1.6891,1.6802,1.6802,1.6803,0,1.6273,1.6308,1.6348,1.6372,1.6392,1.6432,1.6458,1.6472,1.65,1.6542,1.657,1.6615,1.6652,1.6725,1.675,1.6793,1.6794,1.683,1.6801,1.6797,1.6796,1.6794,1.6798,1.6835,1.6836,1.6837,1.6838,0,1.6348,1.6356,1.6392,1.6433,1.6464,1.6497,1.6529,1.655,1.6569,1.6601,1.6647,1.6676,1.6733,1.6779,1.6824,1.6845,1.6846,1.6847,1.6858,1.6855,1.6848,1.6854,1.6747,1.6844,1.6843,1.6843,1.6843,1.6842,1.64,1.6432,1.6465,1.6507,1.6533,1.6563,1.6596,1.6616,1.6655,1.6702,1.6709,1.6759,1.6795,1.6855,1.6878,1.6919,1.691,1.6925,1.6929,1.6933,1.6936,1.6841,1.6927,1.6927,1.6927,1.6927,1.6927,0,1.6477,1.6498,1.6537,1.6582,1.6615,1.6612,1.6648,1.6677,1.672,1.6753,1.679,1.6844,1.6889,1.6918,1.6964,1.6991,1.6992,1.7003,1.7001,1.7006,1.6941,1.6927,1.7001,1.7001,1.7001,1.7001,1.7001,1.7001,1.652,1.6574,1.6585,1.6653,1.6674,1.6723,1.6744,1.6773,1.6799,1.686,1.6897,1.6915,1.6947,1.6995,1.7037,1.7045,1.7062,1.7073,1.708,1.7018,1.7011,1.7003,1.6991,1.7077,1.7077,1.7143,1.7143,1.7144]},{"header":{"parameterUnit":"m.s-1","parameterCategory":1,"la1":30.2991,"la2":30.254,"lo1":-89.0895,"lo2":-89.0444,"dy":0.0017,"dx":0.0017,"nx":28,"ny":28,"refTime":"2025-12-26T09:00:00:Z","depth":0,"parameterNumber":3,"parameterNumberName":"V-component_of_WINDS"},"data":[0,0,0,0,0,0,0,0,0,0,0,0,0,0,0,0,0,0,0,0,0,0,0,0,0,0,0,0,0,0,0,0,0,0,0,0,0,0,0,0,0,0,0,0,0,0,0,0,0,0,0,0,0,0,0,0,0,0,2.3964,2.3964,0,2.3976,2.3976,2.3976,2.3947,2.3947,2.3946,2.3945,2.3957,2.3958,2.396,0,0,0,0,0,0,0,0,0,0,0,0,0,2.3916,2.3917,2.3964,2.3964,2.3964,2.3976,2.3976,2.3976,2.3948,2.3947,2.3945,2.3944,2.3957,2.3958,2.396,0,0,0,0,0,0,0,0,0,0,0,0,0,2.3933,2.3917,2.3964,2.3951,2.395,2.3976,2.3976,2.3976,2.3948,2.3947,2.3945,2.3944,2.3956,2.3958,2.396,2.3998,0,0,2.3965,2.3966,0,0,0,0,0,0,0,0,2.3932,2.3935,2.3953,2.3952,2.3951,2.3959,2.3964,2.3984,2.3948,2.3949,2.3945,2.3943,2.3959,2.396,2.3966,2.3999,2.3999,2.3965,2.3966,2.3967,2.3968,0,0,0,0,0,0,0,2.3931,2.3934,2.3968,2.3953,2.3952,2.3945,2.3946,2.3967,2.3961,2.3949,2.3947,2.3948,2.3958,2.3964,2.3966,2.4,2.3965,2.3967,2.3968,2.3969,2.4067,2.4068,0,0,0,0,0,0,2.3931,2.3933,2.3968,2.3969,2.3938,2.3947,2.3948,2.3958,2.3961,2.396,2.395,2.3947,2.3962,2.3964,2.3966,2.4013,2.3967,2.3969,2.397,2.4065,2.4067,2.4069,0,0,0,0,0,0,2.3931,2.3935,2.3968,2.3951,2.3954,2.3949,2.396,2.3959,2.3965,2.3962,2.3961,2.3957,2.3961,2.3964,2.3991,2.4013,2.397,2.3971,2.4063,2.4066,2.4068,2.4106,0,0,0,0,0,0,2.3929,2.3935,2.3949,2.3951,2.3955,2.3992,2.3962,2.396,2.3968,2.3964,2.3968,2.3967,2.396,2.3988,2.3993,2.4014,2.3973,2.4062,2.4065,2.4067,2.4102,2.4109,2.4114,0,0,0,0,0,2.3928,2.3959,2.395,2.3954,2.3973,2.3993,2.3996,2.3986,2.3969,2.3984,2.3983,2.3967,2.4009,2.3991,2.3996,2.4019,2.406,2.4064,2.4067,2.41,2.4108,2.4114,0,0,0,0,0,0,2.3958,2.3959,2.3949,2.3981,2.3988,2.3989,2.4007,2.3995,2.4006,2.4002,2.399,2.3991,2.4021,2.4022,2.4002,2.4057,2.4032,2.4037,2.4055,2.4063,2.4069,2.4068,2.3974,0,0,0,0,0,2.3969,2.3986,2.3985,2.4013,2.4017,2.4012,2.402,2.4012,2.4018,2.4021,2.4021,2.4028,2.4042,2.4052,2.4066,2.4102,2.4103,2.412,2.4126,2.4131,2.4135,2.4157,2.4165,2.408,2.408,2.408,0,0,2.3991,2.3993,2.4004,2.402,2.4024,2.4042,2.4014,2.4033,2.4047,2.4024,2.405,2.4051,2.4057,2.409,2.4104,2.4092,2.4159,2.4135,2.4139,2.4141,2.4161,2.4169,2.4176,2.4083,2.4082,2.4082,0,0,2.4041,2.4043,2.4069,2.4074,2.408,2.4076,2.4083,2.4085,2.4085,2.4112,2.4095,2.4111,2.4136,2.4142,2.4148,2.4202,2.4189,2.4206,2.4238,2.4259,2.4266,2.4272,2.4292,2.43,2.421,2.4211,2.4211,0,2.4067,2.4094,2.4083,2.4104,2.4112,2.4093,2.4119,2.4124,2.4134,2.414,2.4126,2.4159,2.4162,2.4196,2.421,2.4215,2.4222,2.4206,2.4266,2.4271,2.4277,2.4296,2.4304,2.4213,2.4213,2.4212,2.4212,0,2.4127,2.4145,2.4165,2.4177,2.4186,2.421,2.4203,2.4215,2.4207,2.4205,2.4232,2.4235,2.425,2.4257,2.4249,2.4291,2.4283,2.4268,2.4243,2.4287,2.4306,2.4313,2.4216,2.4215,2.4215,2.4214,0,0,2.4196,2.4202,2.421,2.4216,2.4222,2.4237,2.426,2.4274,2.4285,2.4293,2.4313,2.4336,2.4322,2.4329,2.4321,2.4339,2.4384,2.4321,2.4321,2.4334,2.4433,2.4446,2.4454,2.4375,2.4376,2.4377,2.4433,0,2.4246,2.4286,2.4278,2.4318,2.4335,2.4318,2.4338,2.4345,2.4343,2.4359,2.4357,2.4374,2.4353,2.4358,2.4375,2.4375,2.4403,2.437,2.4394,2.4395,2.4395,2.4464,2.4477,2.4529,2.4439,2.4441,2.4442,0,2.431,2.4322,2.4364,2.4369,2.4376,2.4395,2.4408,2.4423,2.443,2.4428,2.4437,2.4426,2.445,2.4424,2.4458,2.4435,2.4444,2.4446,2.4448,2.4451,2.4422,2.447,2.4546,2.4554,2.4452,2.4452,2.4451,0,2.4359,2.4385,2.4413,2.4419,2.4425,2.4439,2.4442,2.4448,2.4458,2.447,2.4477,2.4491,2.4499,2.4511,2.4504,2.4486,2.454,2.4513,2.454,2.454,2.4553,2.4552,2.4633,2.4556,2.4556,2.4556,2.4556,0,2.4417,2.4443,2.4436,2.4453,2.4483,2.4473,2.4503,2.4504,2.451,2.4529,2.4513,2.4531,2.4521,2.4538,2.4533,2.4563,2.4566,2.4566,2.4564,2.4568,2.4568,2.4575,2.4572,2.4558,2.4558,2.4557,2.4557,0,2.4476,2.4472,2.4502,2.4506,2.4508,2.453,2.4534,2.4551,2.4549,2.4572,2.4577,2.4574,2.4594,2.4588,2.4609,2.4606,2.4644,2.4637,2.4642,2.4641,2.4669,2.4667,2.4757,2.4769,2.4684,2.4684,2.4685,0,2.4514,2.4534,2.4541,2.4552,2.4557,2.4575,2.4586,2.4577,2.4589,2.46,2.4616,2.4634,2.4648,2.468,2.468,2.4696,2.4691,2.4721,2.4693,2.4697,2.4694,2.4693,2.4696,2.4727,2.4728,2.4729,2.473,0,2.4582,2.4579,2.4595,2.4611,2.4624,2.4635,2.4646,2.4656,2.4648,2.4662,2.4682,2.4693,2.4715,2.4734,2.4749,2.4753,2.4741,2.4739,2.4746,2.4751,2.4753,2.4754,2.4659,2.4737,2.4736,2.4736,2.4735,2.4735,2.4633,2.4651,2.4659,2.4677,2.4685,2.4695,2.4712,2.4713,2.4729,2.4747,2.4741,2.4764,2.4772,2.4792,2.4797,2.4816,2.4804,2.4815,2.4818,2.4821,2.4825,2.4749,2.4818,2.4818,2.4818,2.4818,2.4818,0,2.4702,2.4707,2.4724,2.4739,2.4754,2.4741,2.4752,2.4766,2.4787,2.4796,2.481,2.4834,2.4853,2.4855,2.4872,2.4887,2.4882,2.4892,2.4892,2.4893,2.4834,2.4826,2.4896,2.4896,2.4896,2.4896,2.4896,2.4896,2.474,2.477,2.4769,2.4803,2.4807,2.483,2.4838,2.4848,2.4855,2.4883,2.4899,2.49,2.4906,2.4925,2.4941,2.4942,2.495,2.4962,2.4961,2.4905,2.4897,2.489,2.4883,2.4964,2.4964,2.5019,2.5019,2.502]}]]